Location: Buckland
(65.9785°N, 161.1281°W)
Time: 14:26:00
(UTC+00:00)

Transit 4A - Pass Details

Date: 07 October 2022
Orbit: 871 x 972 km, 66.8° (Epoch: 29 November)

Event Time Altitude Azimuth Distance (km) Brightness Sun altitude
Exits shadow 11:13:08 78° 73° (ENE) 920 7.8 -29.2°
Drops below altitude 10° 11:18:38 10° 76° (ENE) 2,550 10.5 -29.1°
Sets 11:21:06 0° 76° (ENE) 3,481 11.2 -29.0°
